Tillbaka till svenska Fidonet
English   Information   Debug  
FILM   0/18
FNEWS_PUBLISH   4940
FN_SYSOP   42222
FN_SYSOP_OLD1   71952
FTP_FIDO   0/2
FTSC_PUBLIC   0/13973
FUNNY   0/4886
GENEALOGY.EUR   0/71
GET_INFO   105
GOLDED   0/408
HAM   3388/16677
HOLYSMOKE   0/6791
HOT_SITES   0/1
HTMLEDIT   0/71
HUB203   466
HUB_100   264
HUB_400   39
HUMOR   0/29
IC   0/2851
INTERNET   0/424
INTERUSER   0/3
IP_CONNECT   719
JAMNNTPD   0/233
JAMTLAND   0/47
KATTY_KORNER   0/41
LAN   0/16
LINUX-USER   0/19
LINUXHELP   0/1155
LINUX   0/22302
LINUX_BBS   0/957
mail   18.68
mail_fore_ok   249
MENSA   0/341
MODERATOR   0/102
MONTE   0/992
MOSCOW_OKLAHOMA   0/1245
MUFFIN   0/783
MUSIC   0/321
N203_STAT   938
N203_SYSCHAT   313
NET203   321
NET204   69
NET_DEV   0/10
NORD.ADMIN   0/101
NORD.CHAT   0/2572
NORD.FIDONET   189
NORD.HARDWARE   0/28
NORD.KULTUR   0/114
NORD.PROG   0/32
NORD.SOFTWARE   0/88
NORD.TEKNIK   0/58
NORD   0/453
OCCULT_CHAT   0/93
OS2BBS   0/787
OS2DOSBBS   0/580
OS2HW   0/42
OS2INET   0/37
OS2LAN   0/134
OS2PROG   0/36
OS2REXX   0/113
OS2USER-L   207
OS2   0/4831
OSDEBATE   12499/18996
PASCAL   0/490
PERL   0/457
PHP   0/45
POINTS   0/405
POLITICS   0/29554
POL_INC   0/14731
PSION   103
R20_ADMIN   1133
R20_AMATORRADIO   0/2
R20_BEST_OF_FIDONET   16
R20_CHAT   0/896
R20_DEPP   0/3
R20_DEV   400
R20_ECHO2   1847
R20_ECHOPRES   0/35
R20_ESTAT   0/719
R20_FIDONETPROG...
...RAM.MYPOINT
  0/2
R20_FIDONETPROGRAM   0/22
R20_FIDONET   0/248
R20_FILEFIND   0/24
R20_FILEFOUND   0/22
R20_HIFI   0/3
R20_INFO2   3739
R20_INTERNET   0/12940
R20_INTRESSE   0/60
R20_INTR_KOM   0/99
R20_KANDIDAT.CHAT   42
R20_KANDIDAT   28
R20_KOM_DEV   112
R20_KONTROLL   0/13360
R20_KORSET   0/18
R20_LOKALTRAFIK   0/24
R20_MODERATOR   0/1852
R20_NC   76
R20_NET200   245
R20_NETWORK.OTH...
...ERNETS
  0/13
R20_OPERATIVSYS...
...TEM.LINUX
  0/44
R20_PROGRAMVAROR   0/1
R20_REC2NEC   534
R20_SFOSM   0/341
R20_SF   0/108
R20_SPRAK.ENGLISH   0/1
R20_SQUISH   107
R20_TEST   2
R20_WORST_OF_FIDONET   20
RAR   0/9
RA_MULTI   106
RA_UTIL   0/162
REGCON.EUR   0/2068
REGCON   0/13
SCIENCE   0/1206
SF   0/239
SHAREWARE_SUPPORT   0/5146
SHAREWRE   0/14
SIMPSONS   0/169
STATS_OLD1   0/2539.065
STATS_OLD2   0/2530
STATS_OLD3   0/2395.095
STATS_OLD4   0/1692.25
SURVIVOR   0/495
SYSOPS_CORNER   0/3
SYSOP   0/84
TAGLINES   0/112
TEAMOS2   0/4530
TECH   0/2617
TEST.444   0/105
TRAPDOOR   0/19
TREK   0/755
TUB   0/290
UFO   0/40
UNIX   0/1316
USA_EURLINK   0/102
USR_MODEMS   0/1
VATICAN   494/2740
VIETNAM_VETS   0/14
VIRUS   0/378
VIRUS_INFO   0/201
VISUAL_BASIC   0/473
WHITEHOUSE   0/5187
WIN2000   0/101
WIN32   0/30
WIN95   0/4291
WIN95_OLD1   0/70272
WINDOWS   0/1517
WWB_SYSOP   0/419
WWB_TECH   0/810
ZCC-PUBLIC   0/1
ZEC   4

 
4DOS   0/134
ABORTION   0/7
ALASKA_CHAT   0/506
ALLFIX_FILE   0/1313
ALLFIX_FILE_OLD1   0/7997
ALT_DOS   0/152
AMATEUR_RADIO   0/1039
AMIGASALE   0/14
AMIGA   0/331
AMIGA_INT   0/1
AMIGA_PROG   0/20
AMIGA_SYSOP   0/26
ANIME   0/15
ARGUS   0/924
ASCII_ART   0/340
ASIAN_LINK   0/651
ASTRONOMY   0/417
AUDIO   0/92
AUTOMOBILE_RACING   0/105
BABYLON5   0/17862
BAG   135
BATPOWER   300/361
BBBS.ENGLISH   0/382
BBSLAW   0/109
BBS_ADS   0/5290
BBS_INTERNET   0/507
BIBLE   0/3563
BINKD   0/1119
BINKLEY   0/215
BLUEWAVE   0/2173
CABLE_MODEMS   0/25
CBM   0/46
CDRECORD   0/66
CDROM   0/20
CLASSIC_COMPUTER   0/378
COMICS   0/15
CONSPRCY   0/899
COOKING   41611
COOKING_OLD1   19597/24719
COOKING_OLD2   0/40862
COOKING_OLD3   0/37489
COOKING_OLD4   26777/35496
COOKING_OLD5   9370
C_ECHO   0/189
C_PLUSPLUS   0/31
DIRTY_DOZEN   0/201
DOORGAMES   0/2313
DOS_INTERNET   0/196
duplikat   6102
ECHOLIST   15235/18295
EC_SUPPORT   0/318
ELECTRONICS   0/359
ELEKTRONIK.GER   1534
ENET.LINGUISTIC   0/13
ENET.POLITICS   0/4
ENET.SOFT   0/11701
ENET.SYSOP   34298
ENET.TALKS   0/32
ENGLISH_TUTOR   0/2000
EVOLUTION   0/1335
FDECHO   0/217
FDN_ANNOUNCE   0/7068
FIDONEWS   25079
FIDONEWS_OLD1   0/49742
FIDONEWS_OLD2   4268/35949
FIDONEWS_OLD3   0/30874
FIDONEWS_OLD4   20122/37224
FIDO_SYSOP   12923
FIDO_UTIL   0/180
FILEFIND   0/209
FILEGATE   0/212
Möte HAM, 16677 texter
 lista första sista föregående nästa
Text 4238, 908 rader
Skriven 2011-01-07 02:04:29 av Amsat List (1:323/120.0)
Ärende: [keps]  orb11006.amsa
=============================
[keps]  orb11006.amsa

Return-Path: <keps-bounces@amsat.org>
X-Rcpt: craig.healy@chowda.com
X-UIDL: 1294376301.42120

SB KEPS @ AMSAT  $ORB11006.O
Orbital Elements  11006.OSCAR

HR AMSAT ORBITAL ELEMENTS FOR OSCAR SATELLITES
FROM WA5QGD FORT WORTH,TX January 6, 2011
Send Subscribe/unsubscribe to KEPS at http://www.amsat.org/mailman/listinfo/kep
BID: ORB11006.O
TO ALL RADIO AMATEURS BT

Satellite: AO-07
Catalog number: 07530
Epoch time:      11005.91035881
Element set:    0972
Inclination:      101.3954 deg
RA of node:       018.8522 deg
Eccentricity:    0.0011818
Arg of perigee:   237.2593 deg
Mean anomaly:     122.7338 deg
Mean motion:   12.53580729 rev/day
Decay rate:       -2.7e-07 rev/day^2
Epoch rev:           65385
Checksum:              297

Satellite: FO-29
Catalog number: 24278
Epoch time:      11006.47119740
Element set:     476
Inclination:      098.5214 deg
RA of node:       172.5877 deg
Eccentricity:    0.0350214
Arg of perigee:   316.6552 deg
Mean anomaly:     040.7519 deg
Mean motion:   13.52956548 rev/day
Decay rate:        4.0e-07 rev/day^2
Epoch rev:           71059
Checksum:              312

Satellite: SO-33
Catalog number: 25509
Epoch time:      11005.59854408
Element set:     875
Inclination:      031.4340 deg
RA of node:       083.8532 deg
Eccentricity:    0.0354030
Arg of perigee:   259.7927 deg
Mean anomaly:     096.2585 deg
Mean motion:   14.28353863 rev/day
Decay rate:       2.32e-06 rev/day^2
Epoch rev:           63701
Checksum:              309

Satellite: RS-22
Catalog number: 27939
Epoch time:      11006.66829483
Element set:     875
Inclination:      097.8642 deg
RA of node:       228.1907 deg
Eccentricity:    0.0014324
Arg of perigee:   133.2489 deg
Mean anomaly:     226.9911 deg
Mean motion:   14.63497157 rev/day
Decay rate:       1.36e-06 rev/day^2
Epoch rev:           38871
Checksum:              341

Satellite: VO-52
Catalog number: 28650
Epoch time:      11006.58943328
Element set:     687
Inclination:      097.6664 deg
RA of node:       056.7815 deg
Eccentricity:    0.0026496
Arg of perigee:   333.5164 deg
Mean anomaly:     026.4684 deg
Mean motion:   14.81886992 rev/day
Decay rate:       4.00e-06 rev/day^2
Epoch rev:           30681
Checksum:              339

Satellite: SO-67
Catalog number: 35870
Epoch time:      11006.66380666
Element set:     446
Inclination:      097.3056 deg
RA of node:       055.1171 deg
Eccentricity:    0.0004605
Arg of perigee:   097.5341 deg
Mean anomaly:     048.6629 deg
Mean motion:   15.21276505 rev/day
Decay rate:       9.33e-06 rev/day^2
Epoch rev:            7238
Checksum:              307

Satellite: HO-68
Catalog number: 36122
Epoch time:      11006.79778227
Element set:       0
Inclination:      100.4422 deg
RA of node:       069.9064 deg
Eccentricity:    0.0007209
Arg of perigee:   231.1302 deg
Mean anomaly:     128.9169 deg
Mean motion:   13.16283586 rev/day
Decay rate:       -4.5e-07 rev/day^2
Epoch rev:            5100
Checksum:              268

/EX
SB KEPS @ AMSAT  $ORB11006.D
Orbital Elements  11006.MICROS

HR AMSAT ORBITAL ELEMENTS FOR THE MICROSATS
FROM WA5QGD FORT WORTH,TX January 6, 2011
Send Subscribe/unsubscribe to KEPS at http://www.amsat.org/mailman/listinfo/kep
BID: ORB11006.D
TO ALL RADIO AMATEURS BT

Satellite: UO-11
Catalog number: 14781
Epoch time:      11005.80232715
Element set:     436
Inclination:      098.0290 deg
RA of node:       062.8382 deg
Eccentricity:    0.0008259
Arg of perigee:   308.5068 deg
Mean anomaly:     051.5385 deg
Mean motion:   14.79878214 rev/day
Decay rate:       4.29e-06 rev/day^2
Epoch rev:           44177
Checksum:              308

Satellite: AO-16
Catalog number: 20439
Epoch time:      11005.83704760
Element set:    0086
Inclination:      098.3620 deg
RA of node:       321.0722 deg
Eccentricity:    0.0010217
Arg of perigee:   288.3164 deg
Mean anomaly:     071.6919 deg
Mean motion:   14.31890308 rev/day
Decay rate:        1.9e-07 rev/day^2
Epoch rev:           09438
Checksum:              284

Satellite: LO-19
Catalog number: 20442
Epoch time:      11006.50108127
Element set:     994
Inclination:      098.3244 deg
RA of node:       326.6981 deg
Eccentricity:    0.0011023
Arg of perigee:   278.5684 deg
Mean anomaly:     081.4236 deg
Mean motion:   14.32118434 rev/day
Decay rate:       -2.5e-07 rev/day^2
Epoch rev:            9465
Checksum:              286

Satellite: AO-27
Catalog number: 22825
Epoch time:      11005.88434952
Element set:    0718
Inclination:      098.5122 deg
RA of node:       313.8509 deg
Eccentricity:    0.0009080
Arg of perigee:   037.2580 deg
Mean anomaly:     322.9262 deg
Mean motion:   14.29321823 rev/day
Decay rate:       -3.7e-07 rev/day^2
Epoch rev:           90100
Checksum:              285

Satellite: IO-26
Catalog number: 22826
Epoch time:      11005.84335013
Element set:     454
Inclination:      098.5067 deg
RA of node:       314.3407 deg
Eccentricity:    0.0009479
Arg of perigee:   032.3254 deg
Mean anomaly:     327.8508 deg
Mean motion:   14.29580801 rev/day
Decay rate:       -1.1e-07 rev/day^2
Epoch rev:           90111
Checksum:              277

Satellite: GO-32
Catalog number: 25397
Epoch time:      11006.07164611
Element set:     375
Inclination:      098.3174 deg
RA of node:       007.3874 deg
Eccentricity:    0.0001952
Arg of perigee:   054.8797 deg
Mean anomaly:     305.2560 deg
Mean motion:   14.23193202 rev/day
Decay rate:      -1.22e-06 rev/day^2
Epoch rev:           64890
Checksum:              289

